sat.trackr.live / text

‹ back to catalog

STARLINK-31059

NORAD 58596 · 2023-200H

PAYLOAD ACTIVE UNKNOWN

§ Identity

Operator
Country
US
Launch date
2023-12-19
Launch site
AFETR
Launch vehicle
Mass (kg)
RCS (m²)

Purposes: comms

External: N2YO · Heavens-Above · Gunter

§ Orbital elements

Epoch: 2026-09-20T05:33:08.167392Z

Period
94.27 min
Inclination
43.0031°
Eccentricity
0.0001288
Mean motion
15.27574972 rev/d
Perigee alt
482.2 km
Apogee alt
483.9 km
Semi-major
6,861.2 km
B*
1.4730e-6
RAAN
353.4609°
Arg perigee
238.7827°
Mean anomaly
121.2898°
Rev number
15,520

§ Raw data

STARLINK-310591 58596U 23200H   26263.23134453 -.00000222  00000+0  14730-5 0  99902 58596  43.0031 353.4609 0001288 238.7827 121.2898 15.27574972155205

JSON: /api/v1/satellites/58596 · /tle

For live sub-satellite position, see the globe view (requires WebGL).

§ Visibility from observer

Set your observer location to see the next 7 days of passes ≥ 10°. The values pass through the URL so the page stays shareable.

No JS? Fill the form by hand. The geolocation button needs JavaScript.